Cosmos 1076 Rocket - Orbit

View from above orbital plane
View from above orbital plane
View from above satellite
View from above satellite

Ground track
Ground track

The orbit data is extracted from the following two-line orbital elements,

1 11267U 79011B   13140.16626116  .00000430  00000-0  44293-4 0   931
2 11267 082.5257 194.2586 0018832 135.8647 276.4604 14.87705864853981
Epoch (UTC): 20 May 2013 03:59:24
Eccentricity: 0.0018832
inclination: 82.5257°
perigee height: 592 km
apogee height: 618 km
right ascension of ascending node: 194.2586°
argument of perigee: 135.8647°
revolutions per day: 14.87705864
mean anomaly at epoch: 276.4604°
orbit number at epoch: 85398

The dashed part of the orbit path shows where the satellite is in the earth's shadow,  

Developed and maintained by Chris Peat, Heavens-Above GmbH. Please read the updated FAQ before sending e-mail. Imprint. DLR